UPZAB UNNT-UNKL

Flight info

Callsign UPZAB
Flight time N/A
Altitude 31000
Route OGATI1J OGATI A308 RISPA A366 KESED A309 ROTLI A300 RANET RANET2S
Aircraft C700/M-SBDGHM1RWXY/LB2

Departure

Time 2026-05-01 14:55
Airport Novosibirsk Tolmachevo Airport (UNNT)

Arrival

Time N/A
Airport Krasnoyarsk International Airport (UNKL)
Time Latitude Longitude Altitude Speed Heading
2026-05-01 14:26 55.00934 82.65266 367 ft 0 kts 171°
2026-05-01 14:52 55.00922 82.65269 367 ft 5 kts 171°
2026-05-01 14:52 55.00882 82.65242 367 ft 8 kts 257°
2026-05-01 14:52 55.00947 82.65121 367 ft 10 kts 356°
2026-05-01 14:53 55.01025 82.65101 367 ft 13 kts 351°
2026-05-01 14:53 55.01119 82.65075 367 ft 8 kts 349°
2026-05-01 14:53 55.01123 82.65074 367 ft 0 kts 352°
2026-05-01 14:54 55.01197 82.65055 367 ft 27 kts 355°
2026-05-01 14:54 55.01267 82.65329 367 ft 59 kts 81°
2026-05-01 14:55 55.01385 82.66652 415 ft 155 kts 81°
2026-05-01 14:55 55.01606 82.68795 1201 ft 200 kts 84°
2026-05-01 14:55 55.01812 82.71361 2466 ft 226 kts 86°
2026-05-01 14:55 55.02074 82.74187 3771 ft 248 kts 85°
2026-05-01 14:56 55.02357 82.77223 4004 ft 255 kts 85°
2026-05-01 14:56 55.02614 82.80274 4373 ft 260 kts 92°
2026-05-01 14:56 55.02285 82.83343 5974 ft 263 kts 110°
2026-05-01 14:56 55.01810 82.86457 7617 ft 275 kts 105°
2026-05-01 14:57 55.01450 82.89775 9337 ft 282 kts 104°
2026-05-01 14:57 55.00535 82.96911 11897 ft 329 kts 106°
2026-05-01 14:57 54.99982 83.00959 13034 ft 358 kts 105°
2026-05-01 14:58 54.99419 83.05333 14239 ft 378 kts 104°
2026-05-01 14:58 54.98857 83.09847 15760 ft 387 kts 104°
2026-05-01 14:58 54.98409 83.14531 17178 ft 400 kts 93°
2026-05-01 14:58 54.98844 83.19381 18556 ft 414 kts 72°
2026-05-01 14:59 54.99995 83.24158 18974 ft 441 kts 64°
2026-05-01 14:59 55.01461 83.28863 18978 ft 444 kts 60°
2026-05-01 14:59 55.03054 83.33510 18984 ft 447 kts 58°
2026-05-01 14:59 55.04684 83.38124 18985 ft 448 kts 58°
2026-05-01 15:00 55.07968 83.47358 18986 ft 448 kts 58°
2026-05-01 15:00 55.09055 83.50424 18988 ft 447 kts 58°
2026-05-01 15:00 55.10691 83.55047 18987 ft 447 kts 58°
2026-05-01 15:01 55.12321 83.59667 18986 ft 447 kts 58°
2026-05-01 15:01 55.13956 83.64303 18988 ft 448 kts 58°
2026-05-01 15:01 55.15589 83.68940 18986 ft 448 kts 58°
2026-05-01 15:01 55.17207 83.73540 19604 ft 435 kts 58°
2026-05-01 15:02 55.18622 83.78109 21388 ft 427 kts 69°
2026-05-01 15:02 55.19091 83.81455 22082 ft 431 kts 85°
2026-05-01 15:02 55.18464 83.88311 23620 ft 432 kts 115°
2026-05-01 15:02 55.16978 83.92880 24530 ft 434 kts 127°
2026-05-01 15:03 55.15129 83.97102 25421 ft 439 kts 132°
2026-05-01 15:03 55.13146 84.01217 26297 ft 446 kts 133°
2026-05-01 15:03 55.11223 84.05529 27139 ft 454 kts 128°
2026-05-01 15:03 55.09433 84.10134 27967 ft 462 kts 126°
2026-05-01 15:04 55.07676 84.14787 28793 ft 468 kts 127°
2026-05-01 15:04 55.05736 84.19488 29617 ft 474 kts 130°
2026-05-01 15:04 55.03735 84.23998 30352 ft 480 kts 130°
2026-05-01 15:04 55.01710 84.28667 30962 ft 488 kts 128°
2026-05-01 15:05 54.99705 84.33573 30998 ft 503 kts 127°
2026-05-01 15:05 54.95637 84.43561 31001 ft 507 kts 129°
2026-05-01 15:06 54.91394 84.53376 31008 ft 508 kts 128°
2026-05-01 15:06 54.87538 84.63668 31006 ft 511 kts 117°
2026-05-01 15:07 54.85378 84.75411 31010 ft 514 kts 100°
2026-05-01 15:07 54.84736 84.87494 31014 ft 515 kts 95°
2026-05-01 15:08 54.83996 84.99879 31018 ft 516 kts 96°
2026-05-01 15:08 54.83341 85.12276 31022 ft 516 kts 95°
2026-05-01 15:09 54.82746 85.24677 31023 ft 516 kts 95°
2026-05-01 15:09 54.82140 85.37067 31030 ft 515 kts 95°
2026-05-01 15:10 54.81528 85.49438 31031 ft 515 kts 95°
2026-05-01 15:10 54.80600 85.68066 31034 ft 517 kts 95°
2026-05-01 15:11 54.79660 85.86681 31039 ft 517 kts 95°
2026-05-01 15:12 54.79028 85.99108 31037 ft 517 kts 95°
2026-05-01 15:12 54.78075 86.17717 31038 ft 517 kts 94°
2026-05-01 15:14 54.76462 86.48660 31039 ft 517 kts 94°
2026-05-01 15:14 54.75479 86.67209 31040 ft 515 kts 94°
2026-05-01 15:15 54.75638 86.79477 31039 ft 510 kts 71°
2026-05-01 15:15 54.79417 86.89481 31051 ft 497 kts 41°
2026-05-01 15:16 54.89895 87.05046 31054 ft 499 kts 44°
2026-05-01 15:18 55.01712 87.27214 31063 ft 499 kts 41°
2026-05-01 15:19 55.11194 87.44927 31065 ft 498 kts 42°
2026-05-01 15:19 55.18374 87.58058 31075 ft 499 kts 44°
2026-05-01 15:20 55.25504 87.71335 31079 ft 498 kts 42°
2026-05-01 15:21 55.30214 87.80154 31085 ft 499 kts 44°
2026-05-01 15:21 55.34935 87.89096 31086 ft 499 kts 43°
2026-05-01 15:22 55.42067 88.02479 31090 ft 501 kts 43°
2026-05-01 15:22 55.46785 88.11482 31092 ft 500 kts 43°
2026-05-01 15:23 55.51534 88.20440 31092 ft 499 kts 43°
2026-05-01 15:23 55.56231 88.29478 31092 ft 499 kts 43°
2026-05-01 15:24 55.60943 88.38481 31087 ft 499 kts 43°
2026-05-01 15:24 55.65649 88.47530 31088 ft 499 kts 43°
2026-05-01 15:25 55.70304 88.56562 31082 ft 500 kts 43°
2026-05-01 15:25 55.75014 88.65646 31083 ft 500 kts 43°
2026-05-01 15:26 55.79698 88.74805 31084 ft 501 kts 43°
2026-05-01 15:26 55.84389 88.83962 31082 ft 499 kts 43°
2026-05-01 15:27 55.89058 88.93106 31083 ft 499 kts 43°
2026-05-01 15:28 55.93572 89.09905 31084 ft 520 kts 73°
2026-05-01 15:28 55.95059 89.22537 31081 ft 519 kts 73°
2026-05-01 15:29 55.97551 89.41311 31089 ft 520 kts 74°
2026-05-01 15:30 56.00694 89.66651 31089 ft 524 kts 73°
2026-05-01 15:31 56.05323 90.04810 31093 ft 525 kts 74°
2026-05-01 15:32 56.08360 90.30374 31090 ft 526 kts 74°
2026-05-01 15:33 56.10566 90.49524 30872 ft 516 kts 74°
2026-05-01 15:34 56.12671 90.67566 28894 ft 480 kts 74°